Temp
57 56 55 54 54 54 53 52 51 51 52 52 51 50 49 48 47 45 46 48 47 46 47 47 48 47 45 45 45 43 43 45 44 49 51 53 50 49 51 51 52 51 52
56 54 52 52 50 50 50 50 50 50 50 50 50 50 50 48 46 46 46 47 46 46 47 47 48 51 46 46 45 44 43 45 46 45 50 51 51 53 51 48 52 55 50
54 52 50 49 49 48 48 48 49 49 48 49 49 49 49 48 47 46 46 46 45 46 47 46 47 46 46 50 47 49 50 50 50 48 47 51 52 53 52 52 50 50 53
52 51 49 48 48 47 48 48 48 49 48 48 48 49 49 48 47 47 46 44 44 46 47 47 47 48 51 50 49 49 49 48 49 48 48 49 49 51 50 48 48 50 50
52 50 47 48 48 48 47 47 48 48 48 49 48 47 47 47 48 44 44 43 43 44 45 47 47 54 54 52 49 49 48 48 47 47 45 45 44 43 43 46 46 48 50
51 50 50 49 48 47 47 46 46 46 46 47 45 45 43 48 45 47 45 42 43 42 42 44 45 52 51 50 50 50 50 47 46 46 45 43 42 43 44 43 44 44 44
51 51 50 48 48 47 47 46 45 43 43 43 42 42 41 42 44 44 47 42 42 42 42 45 47 52 49 47 47 49 49 50 50 47 45 44 43 43 43 43 43 44 44
49 49 49 48 47 46 45 44 43 42 42 42 41 41 40 43 43 43 45 42 42 43 47 48 49 49 48 45 47 46 48 49 49 49 48 47 46 44 44 45 44 45 46
49 48 48 48 46 45 43 42 42 42 42 43 42 41 40 40 43 42 42 42 43 42 46 49 48 47 45 43 46 45 45 47 49 49 48 46 44 44 44 46 44 43 43
48 48 48 47 46 44 43 42 42 42 42 44 43 42 44 40 43 42 41 40 40 41 43 44 47 45 43 42 42 43 42 44 45 47 48 49 49 47 47 45 45 43 43
49 49 47 46 45 43 42 41 41 40 40 39 40 39 40 41 40 41 41 38 38 39 41 43 45 44 42 42 42 42 41 42 46 46 47 48 49 50 48 45 46 45 43
48 47 46 45 47 45 41 40 40 39 38 38 38 38 39 39 42 41 41 40 42 39 40 42 43 42 42 42 43 41 41 43 43 45 44 45 46 48 49 48 47 48 48
45 43 43 44 43 43 40 39 38 37 37 37 37 36 37 39 38 41 40 40 42 40 41 43 43 42 42 42 42 42 42 41 40 41 41 43 45 48 50 50 49 48 49
43 42 41 41 40 40 39 38 37 36 36 36 36 36 36 37 38 38 38 39 42 42 43 41 43 42 42 42 41 41 41 40 39 38 40 42 46 48 50 50 46 48 46
42 42 40 40 39 37 37 36 37 36 37 35 35 36 35 35 37 38 37 38 38 40 39 38 39 38 37 37 38 38 39 39 37 38 38 39 42 45 48 51 48 47 47
41 40 39 38 38 37 36 36 39 39 39 39 39 39 38 38 38 39 40 40 40 39 38 35 35 34 34 34 34 35 37 37 36 38 37 38 40 43 46 51 51 50 48
39 39 38 39 38 37 37 37 35 37 40 40 39 39 38 38 38 39 40 40 39 39 35 34 33 33 33 33 33 33 33 35 36 36 36 37 40 42 46 48 49 50 50
39 41 38 38 39 39 39 38 37 36 41 41 42 40 39 39 39 40 40 42 40 37 34 33 32 32 31 31 31 31 32 34 34 34 35 37 39 41 45 46 47 48 48
41 39 38 38 38 38 37 36 36 41 41 41 42 42 39 39 40 40 40 39 33 33 32 32 32 31 30 30 30 31 31 31 32 33 34 36 39 41 43 45 46 41 42
41 40 39 38 37 37 36 35 36 39 39 40 39 39 39 41 41 41 40 37 32 31 31 30 30 30 30 29 29 29 29 30 30 31 32 35 38 42 43 43 44 43 44
41 39 36 39 38 36 35 37 40 39 39 39 39 39 33 39 39 39 37 33 30 30 29 29 28 29 29 28 28 28 28 29 29 29 31 33 36 39 41 43 43 43 43
42 40 39 38 37 36 35 40 40 39 40 39 39 39 35 41 40 38 37 32 31 30 29 28 27 27 27 27 27 27 27 27 28 29 30 33 37 38 39 40 40 41 42
44 43 42 41 38 35 40 40 39 39 39 40 40 40 39 39 38 36 34 31 30 29 28 28 27 27 28 29 28 27 25 26 27 29 30 32 36 37 38 39 39 39 39
43 42 42 41 39 39 39 39 39 37 39 40 40 40 39 37 34 34 31 31 30 29 29 28 28 28 28 28 28 28 28 29 29 30 31 34 35 36 37 39 39 39 39
41 41 41 39 39 38 38 39 39 39 39 39 37 36 35 35 32 32 30 30 30 29 29 28 28 29 29 28 28 28 28 29 29 30 32 34 35 36 36 38 38 38 39
40 40 39 38 37 36 38 38 39 39 38 38 36 36 33 31 30 30 30 30 29 28 29 28 29 29 29 28 29 29 28 29 29 30 32 33 33 34 36 36 37 38 37
MSLP
1015.57 1016.18 1016.56 1017.09 1017.26 1017.58 1017.94 1018.26 1018.26 1018.27 1018.41 1018.61 1019.00 1019.28 1019.36 1019.23 1019.12 1018.83 1018.91 1018.81 1018.93 1018.76 1018.36 1018.09 1017.69 1017.26 1016.86 1016.50 1016.21 1015.87 1015.56 1015.36 1014.32 1012.38 1011.77 1010.95 1010.28 1009.74 1009.06 1008.32 1007.62 1006.98 1006.30
1016.43 1016.91 1017.52 1017.84 1018.20 1018.51 1018.93 1018.98 1019.08 1019.15 1019.30 1019.39 1019.49 1019.49 1019.34 1019.43 1019.50 1019.34 1019.43 1019.43 1019.12 1018.80 1018.56 1018.05 1017.66 1017.28 1017.02 1016.63 1016.29 1015.95 1015.43 1014.90 1014.19 1012.75 1011.69 1010.59 1009.89 1009.18 1008.69 1008.31 1007.52 1006.69 1006.30
1017.41 1017.87 1018.44 1018.88 1019.12 1019.46 1019.61 1019.74 1019.65 1019.61 1019.69 1019.52 1019.53 1019.71 1019.91 1019.93 1020.05 1019.97 1019.76 1019.49 1019.22 1018.94 1018.50 1018.18 1017.89 1017.56 1017.20 1016.64 1016.27 1015.75 1015.12 1014.61 1013.92 1013.08 1011.80 1010.93 1010.00 1009.15 1008.33 1007.77 1007.23 1006.65 1006.11
1018.01 1018.54 1019.13 1019.52 1019.66 1019.72 1019.80 1019.88 1019.64 1019.74 1019.80 1020.12 1020.28 1020.49 1020.53 1020.48 1020.47 1020.22 1019.86 1019.57 1019.22 1018.90 1018.68 1018.36 1017.98 1017.57 1017.11 1016.71 1016.21 1015.67 1015.07 1014.44 1013.68 1012.85 1011.94 1010.84 1010.12 1009.11 1008.42 1007.65 1006.95 1006.51 1005.89
1018.53 1019.14 1019.61 1019.73 1019.79 1020.01 1020.33 1020.41 1020.45 1020.64 1020.73 1020.75 1020.80 1020.81 1020.86 1020.81 1020.70 1020.20 1019.84 1019.65 1019.38 1019.08 1018.79 1018.42 1018.11 1017.73 1017.37 1016.90 1016.36 1015.60 1014.99 1014.24 1013.47 1012.80 1012.01 1011.29 1010.41 1009.59 1008.92 1008.09 1007.19 1006.49 1005.80
1019.11 1019.75 1020.09 1020.37 1020.60 1020.93 1021.08 1021.07 1020.96 1021.09 1021.10 1021.04 1021.18 1021.26 1021.31 1021.13 1020.69 1020.27 1020.04 1019.82 1019.76 1019.48 1019.21 1018.74 1018.27 1017.84 1017.35 1016.80 1016.30 1015.75 1015.11 1014.28 1013.49 1012.87 1012.14 1011.66 1010.96 1010.35 1009.48 1008.65 1007.63 1006.75 1006.02
1019.78 1020.22 1020.45 1020.75 1021.03 1021.16 1021.36 1021.29 1021.31 1021.44 1021.33 1021.30 1021.42 1021.31 1021.52 1021.08 1020.89 1020.71 1020.62 1020.25 1019.76 1019.66 1019.37 1018.98 1018.42 1017.98 1017.50 1016.81 1016.02 1015.39 1014.72 1014.08 1013.58 1013.08 1012.40 1011.91 1011.34 1010.78 1009.97 1008.90 1008.13 1007.45 1006.89
1020.21 1020.50 1020.71 1020.97 1021.20 1021.49 1021.53 1021.57 1021.25 1021.37 1021.30 1021.39 1021.45 1021.68 1021.74 1021.58 1021.35 1021.09 1020.69 1020.26 1019.96 1019.71 1019.49 1019.22 1018.75 1018.24 1017.80 1017.26 1016.29 1015.45 1014.69 1014.08 1013.56 1012.99 1012.42 1011.77 1011.48 1011.01 1010.39 1009.46 1008.66 1007.86 1006.88
1020.36 1020.59 1020.84 1020.92 1021.13 1021.34 1021.53 1021.50 1021.29 1021.45 1021.35 1021.53 1021.92 1022.17 1022.04 1022.03 1021.66 1021.20 1020.73 1020.56 1020.37 1020.07 1019.73 1019.31 1019.00 1018.60 1017.96 1017.47 1016.79 1015.90 1015.01 1013.98 1013.25 1012.66 1012.08 1011.39 1010.96 1010.62 1010.18 1009.48 1008.76 1008.07 1007.25
1020.10 1020.33 1020.48 1020.67 1021.02 1021.52 1021.62 1021.63 1021.85 1022.07 1022.24 1022.27 1022.43 1022.47 1022.39 1022.10 1021.73 1021.52 1021.29 1021.11 1020.93 1020.43 1019.85 1019.45 1019.05 1018.77 1018.17 1017.63 1017.25 1016.59 1015.65 1014.71 1013.82 1012.64 1011.88 1011.12 1010.44 1010.22 1009.82 1009.51 1008.98 1008.35 1007.69
1020.26 1020.45 1020.72 1021.13 1021.52 1021.73 1021.98 1022.29 1022.66 1022.67 1022.66 1022.58 1022.86 1022.85 1022.78 1022.36 1022.03 1021.80 1021.63 1021.45 1021.26 1020.78 1020.37 1019.86 1019.41 1018.91 1018.41 1017.91 1017.39 1016.92 1016.31 1015.22 1014.04 1013.18 1012.26 1011.42 1010.63 1009.94 1009.46 1009.02 1008.64 1008.29 1007.78
1020.49 1020.89 1021.35 1021.63 1021.92 1022.26 1022.44 1022.85 1022.91 1023.20 1023.23 1023.31 1023.53 1023.35 1023.22 1022.77 1022.31 1022.07 1021.71 1021.39 1021.25 1021.01 1020.75 1020.29 1019.71 1019.12 1018.70 1018.18 1017.52 1016.86 1016.01 1015.21 1014.46 1013.57 1012.81 1011.90 1011.04 1010.08 1009.27 1008.80 1008.21 1007.80 1007.52
1021.20 1021.74 1021.92 1022.05 1022.37 1022.72 1022.97 1023.40 1023.57 1023.77 1023.66 1023.92 1024.26 1024.09 1023.91 1023.31 1022.74 1022.34 1021.81 1021.58 1021.24 1021.11 1020.88 1020.47 1019.95 1019.48 1018.92 1018.34 1017.75 1017.06 1016.30 1015.76 1015.20 1014.30 1013.60 1012.61 1011.68 1010.51 1009.39 1008.67 1007.93 1007.68 1007.21
1021.69 1022.23 1022.48 1022.68 1023.10 1023.49 1023.70 1023.83 1024.03 1024.19 1024.30 1024.49 1024.63 1024.56 1024.20 1023.80 1023.32 1022.82 1022.51 1022.08 1021.67 1021.37 1020.87 1020.67 1020.32 1019.91 1019.38 1018.99 1018.17 1017.53 1017.08 1016.55 1016.04 1015.45 1014.51 1013.36 1012.05 1010.76 1009.69 1009.02 1008.56 1007.94 1007.51
1022.15 1022.70 1023.03 1023.26 1023.62 1024.10 1024.42 1024.53 1024.39 1024.42 1024.52 1024.75 1024.74 1024.41 1024.37 1024.13 1023.83 1023.44 1023.02 1022.59 1022.26 1021.77 1021.18 1020.86 1020.63 1020.29 1019.93 1019.54 1019.02 1018.42 1017.77 1017.10 1016.42 1015.71 1014.98 1014.01 1012.86 1011.63 1010.31 1009.13 1008.88 1008.31 1007.85
1022.57 1023.19 1023.50 1023.80 1024.15 1024.50 1024.64 1024.95 1024.83 1024.67 1024.69 1024.82 1024.80 1024.56 1024.18 1023.80 1023.88 1023.47 1023.03 1022.74 1022.45 1022.25 1021.84 1021.87 1021.83 1021.55 1021.25 1020.86 1020.28 1019.48 1018.68 1017.99 1017.41 1016.61 1015.89 1014.99 1013.87 1012.61 1011.23 1009.92 1009.13 1008.64 1008.24
1023.08 1023.65 1023.84 1024.08 1024.44 1024.70 1025.00 1025.01 1024.97 1024.89 1024.52 1024.57 1024.72 1024.57 1024.52 1024.08 1023.66 1023.43 1023.33 1023.23 1023.17 1022.82 1023.02 1023.00 1022.80 1022.52 1022.19 1021.77 1021.28 1020.68 1019.93 1019.18 1018.44 1017.53 1016.73 1015.81 1014.67 1013.40 1012.08 1010.97 1010.02 1009.26 1008.58
1023.53 1023.77 1024.10 1024.19 1024.32 1024.73 1025.04 1024.96 1024.79 1024.87 1024.69 1024.67 1024.48 1024.58 1024.32 1024.41 1024.02 1023.57 1023.61 1023.43 1023.77 1023.87 1023.90 1023.95 1023.83 1023.43 1022.99 1022.50 1021.99 1021.46 1020.68 1019.88 1019.16 1018.31 1017.33 1016.44 1015.43 1014.43 1013.06 1012.03 1011.11 1010.28 1009.51
1023.63 1023.81 1024.07 1024.29 1024.51 1024.87 1025.14 1025.15 1024.91 1024.92 1024.88 1024.91 1024.90 1024.73 1024.52 1024.40 1024.32 1024.16 1024.29 1024.55 1024.93 1025.10 1025.01 1024.74 1024.60 1024.32 1023.77 1023.19 1022.67 1022.12 1021.56 1020.78 1020.06 1019.14 1018.19 1017.15 1016.10 1015.03 1013.95 1013.05 1012.12 1011.31 1010.55
1023.63 1023.79 1023.96 1024.51 1024.85 1025.14 1025.37 1025.31 1025.14 1025.15 1025.18 1025.26 1025.23 1025.31 1025.10 1024.79 1024.87 1024.99 1025.21 1025.48 1025.59 1025.74 1025.78 1025.53 1025.30 1025.06 1024.58 1023.97 1023.27 1022.63 1021.96 1021.21 1020.49 1019.74 1018.94 1018.02 1017.00 1015.84 1014.90 1013.97 1013.12 1012.36 1011.54
1023.83 1024.02 1024.22 1024.66 1024.99 1025.32 1025.61 1025.37 1025.28 1025.35 1025.50 1025.45 1025.39 1025.31 1025.25 1025.35 1025.58 1025.87 1026.21 1026.45 1026.47 1026.38 1026.19 1026.13 1025.85 1025.55 1025.18 1024.65 1024.01 1023.35 1022.68 1021.99 1021.30 1020.55 1019.70 1018.69 1017.66 1016.66 1015.78 1014.84 1014.08 1013.31 1012.55
1023.93 1024.18 1024.47 1024.81 1025.05 1025.48 1025.55 1025.42 1025.41 1025.47 1025.75 1025.65 1025.44 1025.30 1025.37 1025.70 1026.08 1026.41 1026.85 1027.11 1027.21 1027.18 1026.94 1026.69 1026.49 1026.17 1025.74 1025.21 1024.68 1024.21 1023.58 1022.80 1021.95 1021.17 1020.22 1019.24 1018.19 1017.29 1016.47 1015.74 1014.91 1014.10 1013.30
1024.03 1024.17 1024.43 1024.77 1025.04 1025.30 1025.41 1025.52 1025.44 1025.75 1025.85 1025.74 1025.64 1025.75 1026.05 1026.42 1026.73 1026.98 1027.32 1027.56 1027.65 1027.67 1027.48 1027.14 1026.98 1026.63 1026.17 1025.75 1025.27 1024.89 1024.46 1023.72 1022.92 1022.05 1021.03 1019.87 1018.79 1017.87 1017.07 1016.47 1015.82 1014.99 1014.26
1024.12 1024.29 1024.47 1024.66 1025.02 1025.23 1025.38 1025.53 1025.82 1025.99 1025.97 1026.04 1026.29 1026.51 1026.82 1027.15 1027.33 1027.57 1027.80 1027.89 1027.93 1027.94 1027.80 1027.56 1027.34 1027.19 1026.78 1026.21 1025.73 1025.22 1024.67 1024.03 1023.17 1022.26 1021.35 1020.43 1019.57 1018.61 1017.76 1017.03 1016.54 1016.04 1015.34
1024.26 1024.33 1024.46 1024.66 1025.03 1025.25 1025.50 1025.75 1026.07 1026.11 1026.26 1026.73 1027.20 1027.45 1027.79 1027.95 1028.06 1028.27 1028.45 1028.46 1028.40 1028.35 1028.24 1027.98 1027.71 1027.41 1027.04 1026.73 1026.15 1025.54 1024.86 1024.03 1023.30 1022.63 1021.74 1020.91 1020.17 1019.49 1018.68 1017.92 1017.31 1016.69 1016.15
1024.32 1024.46 1024.64 1024.85 1025.15 1025.52 1025.75 1025.83 1026.04 1026.36 1026.89 1027.41 1027.93 1028.14 1028.39 1028.57 1028.68 1028.77 1028.81 1028.76 1028.78 1028.73 1028.60 1028.36 1028.07 1027.76 1027.39 1026.97 1026.57 1025.84 1025.10 1024.38 1023.75 1023.00 1022.29 1021.71 1021.07 1020.34 1019.71 1018.95 1018.15 1017.62 1017.12
Wind_Speed
12 11 12 10 10 9 8 6 6 7 7 8 7 6 6 6 6 6 5 6 5 4 4 5 6 5 4 4 4 3 3 3 8 12 11 13 12 10 11 12 11 9 9
11 11 10 9 8 8 7 7 6 7 6 6 5 6 6 6 6 7 6 4 4 6 6 6 7 6 7 6 4 6 5 6 6 14 13 11 13 11 10 11 10 8 7
11 11 9 8 8 7 7 6 6 7 6 6 6 7 6 6 6 5 5 5 5 5 6 6 6 6 6 8 7 8 9 9 8 9 12 11 10 10 11 8 7 7 7
10 10 9 7 6 6 6 6 7 6 6 6 5 5 5 5 5 5 5 5 5 6 6 6 6 6 9 10 9 9 8 8 8 8 9 10 10 11 9 8 8 6 8
11 9 7 6 6 7 6 6 5 5 4 4 5 6 6 6 7 7 6 5 6 6 6 6 6 11 15 13 7 8 9 7 7 9 8 10 10 11 12 9 8 7 8
10 9 7 6 6 6 5 5 6 5 6 6 7 7 7 6 15 14 8 5 5 5 6 7 7 10 13 16 17 16 12 9 9 7 6 10 12 11 9 9 8 7 4
10 8 7 6 6 5 4 6 6 5 5 6 6 7 6 7 16 14 11 4 5 5 6 6 7 8 11 11 14 15 13 16 12 10 10 9 10 12 11 10 9 7 5
9 8 6 6 6 5 5 4 5 3 5 5 7 6 6 7 13 13 9 5 6 6 6 5 8 9 11 12 11 11 12 10 11 8 9 9 7 9 9 8 6 7 6
8 7 6 6 7 5 6 5 5 5 6 6 5 6 6 5 13 15 10 6 6 6 6 7 6 9 14 16 10 12 13 12 13 16 15 14 10 11 8 6 5 6 5
6 6 6 6 6 7 5 7 5 5 5 5 6 6 8 5 10 13 11 4 5 5 6 6 10 11 16 15 9 9 11 12 13 14 12 11 9 7 10 3 5 6 5
7 6 7 6 7 6 6 5 4 5 5 6 6 5 5 6 7 12 11 3 3 4 5 6 7 14 15 14 12 8 8 11 12 10 9 9 9 8 5 4 5 4 4
7 6 6 5 4 4 7 5 6 5 6 6 5 5 4 5 9 10 11 10 7 3 5 5 6 16 15 13 10 16 15 11 8 8 9 9 10 10 9 7 8 6 4
7 6 6 6 5 5 6 6 5 5 5 5 4 3 4 5 5 11 12 12 10 4 4 8 12 13 14 10 15 16 13 9 8 9 9 9 10 10 10 7 6 5 5
7 6 5 6 6 6 4 4 4 4 4 4 3 4 4 4 5 6 6 6 8 6 7 6 9 9 9 10 11 11 8 8 8 8 9 9 10 10 8 5 3 6 3
6 5 5 5 5 5 4 3 4 3 3 3 1 1 3 4 5 7 4 5 5 6 4 4 7 8 10 10 10 10 9 9 10 10 10 10 9 10 10 7 3 3 3
6 4 3 3 4 3 4 4 6 5 6 5 3 4 2 1 8 9 11 13 14 10 5 6 7 7 8 9 9 10 10 13 11 10 9 9 10 10 11 11 7 5 6
6 4 4 3 3 4 3 3 3 2 2 3 6 5 6 3 7 10 10 9 13 8 6 6 6 7 7 8 8 8 9 9 10 9 9 9 10 10 11 10 10 9 7
5 6 3 2 4 4 2 2 3 2 2 2 3 4 7 9 9 11 10 7 7 8 5 6 6 6 7 7 8 8 9 9 10 10 9 9 9 10 10 11 11 10 10
4 3 2 3 4 4 3 2 3 3 3 2 2 3 7 9 9 12 10 7 4 5 5 6 6 6 6 6 6 7 8 8 8 8 9 10 10 10 11 10 10 11 10
3 5 6 4 4 3 2 2 3 3 3 3 3 2 3 4 4 6 6 6 5 4 5 5 6 6 7 7 7 7 7 8 9 9 9 9 10 10 10 10 10 11 10
3 3 5 4 4 3 1 2 3 3 3 2 1 1 1 3 4 5 5 5 4 4 4 4 5 6 6 7 7 7 7 7 8 8 8 9 9 10 10 9 10 9 9
3 4 4 4 4 3 2 2 3 3 2 2 2 3 6 5 5 6 5 4 4 4 4 4 4 5 6 6 7 8 8 8 9 9 9 9 8 9 9 9 10 9 10
3 5 4 3 4 4 3 2 3 1 1 1 3 4 4 5 5 5 5 4 4 4 4 5 6 6 6 7 7 7 7 9 9 8 9 8 8 8 8 9 10 10 10
3 4 4 4 4 3 3 2 2 1 1 4 4 5 5 5 5 5 4 4 4 4 4 5 5 8 8 8 8 8 7 9 8 8 11 8 8 9 7 8 9 10 9
3 4 3 4 4 3 3 4 3 3 5 6 5 6 5 5 5 5 4 4 4 5 6 5 6 8 10 12 13 14 14 16 12 13 8 9 10 12 10 8 9 9 9
3 3 3 3 4 4 3 4 4 6 6 6 5 5 5 5 4 4 4 5 4 5 5 5 7 11 11 10 13 15 16 17 15 16 10 8 9 8 9 10 12 8 10
Wind_Direction
90 88 84 76 72 67 66 58 61 64 71 72 70 69 58 47 31 39 30 22 19 355 352 3 353 341 337 332 323 317 308 283 294 306 312 319 303 293 298 306 304 305 313
93 88 83 81 77 75 67 58 57 69 76 88 81 71 57 44 31 32 20 356 10 7 352 355 349 349 341 328 321 307 288 289 287 308 315 313 310 304 284 281 292 302 307
99 98 89 82 82 81 79 71 74 87 88 71 64 57 48 38 22 6 8 359 1 354 352 350 334 332 348 347 333 331 342 336 320 319 320 323 319 318 315 290 278 289 299
101 97 97 97 98 89 80 72 69 72 78 75 71 72 49 35 5 352 1 5 8 8 356 346 342 352 359 347 346 343 336 326 332 326 322 326 328 332 316 317 309 304 306
97 95 95 87 80 75 68 74 82 88 90 84 73 62 38 28 5 358 9 14 17 14 4 4 353 8 359 348 332 325 320 325 324 336 333 335 335 339 341 328 317 308 301
106 111 110 99 94 98 88 86 83 76 67 72 68 66 38 23 2 12 34 37 19 19 9 349 331 4 351 340 336 334 329 327 323 326 333 347 332 332 329 327 326 340 334
116 118 113 109 100 95 99 84 79 74 78 80 80 65 35 21 8 8 17 10 37 24 12 355 354 358 355 344 341 340 340 341 340 332 321 324 326 332 321 324 334 335 316
117 117 117 115 105 94 85 83 74 66 75 93 80 60 46 25 12 9 8 12 20 20 360 340 2 348 354 347 340 338 343 346 343 331 327 309 309 320 316 313 305 300 289
123 122 122 114 102 88 65 49 40 43 51 71 91 58 43 17 17 17 14 8 5 1 346 348 352 349 345 340 342 338 337 341 341 336 328 314 295 302 312 318 333 329 327
114 108 99 92 90 75 68 58 47 59 72 87 69 41 29 17 20 23 18 357 358 354 344 339 341 346 338 341 347 333 338 336 330 331 336 333 321 302 305 303 309 320 322
110 101 85 83 83 76 68 66 74 68 71 63 63 31 10 10 360 14 16 9 359 346 351 346 339 335 338 339 337 346 326 307 329 334 335 335 335 332 320 304 279 273 299
97 97 94 68 64 89 89 68 60 66 69 58 45 24 350 355 5 356 4 15 354 1 343 327 327 339 340 338 351 342 341 349 346 351 348 341 337 332 328 321 307 288 253
89 92 86 78 68 90 91 85 69 58 65 57 40 23 349 342 353 360 1 356 1 3 339 343 345 338 342 353 353 351 356 359 354 358 347 337 329 317 317 322 313 293 291
102 90 85 88 85 67 64 76 89 72 63 57 39 18 358 346 1 360 352 351 357 359 2 350 350 352 0 357 360 360 359 358 355 345 339 330 330 341 336 340 314 337 330
100 85 80 87 102 95 70 64 89 72 111 84 353 94 22 358 336 329 320 0 349 350 350 14 14 11 8 3 358 356 355 357 358 352 350 343 339 339 343 333 314 311 325
95 85 85 97 117 121 114 90 45 113 90 65 30 29 336 350 335 2 26 26 15 9 25 26 14 9 8 359 355 350 355 357 352 347 344 341 338 339 339 349 353 345 345
105 106 90 81 145 145 145 153 142 326 21 19 9 24 23 346 13 23 27 29 25 19 38 19 18 8 1 359 355 350 346 348 339 346 344 338 337 339 348 352 348 355 351
104 92 82 76 130 145 149 140 125 126 59 14 20 22 9 7 10 38 24 34 31 24 26 19 6 2 360 358 353 348 343 347 349 345 346 344 344 338 349 353 352 1 350
103 100 94 104 95 104 113 100 97 92 76 57 11 23 3 5 56 60 44 56 39 24 6 17 7 355 353 352 348 345 341 344 342 343 347 348 347 344 350 350 351 352 352
98 98 109 114 108 100 96 104 96 92 86 76 63 13 350 39 60 60 52 48 42 31 9 12 5 354 350 349 347 346 345 351 350 351 347 345 344 347 348 347 354 353 353
111 109 117 106 107 107 145 116 97 92 87 74 9 335 72 85 85 78 65 39 28 21 21 6 2 1 353 350 349 348 347 345 347 343 340 340 340 349 348 353 353 355 353
146 143 133 132 126 134 146 114 97 81 45 17 4 31 81 94 99 90 78 51 28 19 11 12 1 357 350 352 350 348 344 342 342 341 336 334 339 349 350 355 358 360 360
163 136 134 139 126 136 134 118 85 72 30 1 81 75 71 84 97 94 83 62 38 22 8 19 11 1 360 355 353 346 338 336 326 319 322 326 340 351 352 356 357 359 5
160 146 148 141 131 139 142 132 143 124 44 78 66 69 77 77 80 78 79 72 55 33 18 21 18 9 357 0 354 351 346 341 332 328 326 334 344 349 355 3 1 358 1
164 151 150 136 133 121 127 132 122 86 80 79 75 73 63 75 71 66 58 49 42 35 23 14 17 9 7 358 359 357 354 356 356 345 339 345 353 357 355 2 0 4 6
164 155 140 128 130 154 166 145 114 105 98 90 77 70 73 74 69 66 58 54 43 31 18 15 14 13 8 4 359 359 0 2 359 353 351 352 356 358 358 359 5 7 6